AirNav   Pilot Hours Calculator
 
 989 users online  

L00 Rosamond Skypark Airport
Rosamond, California, USA

GOING TO ROSAMOND?


FAA INFORMATION EFFECTIVE 25 FEBRUARY 2021

Location

FAA Identifier: L00
Lat/Long: 34-52-13.8000N 118-12-19.5000W
34-52.230000N 118-12.325000W
34.8705000,-118.2054167
(estimated)
Elevation: 2415 ft. / 736 m (estimated)
Variation: 14E (1985)
From city: 3 miles W of ROSAMOND, CA
Time zone: UTC -8 (UTC -7 during Daylight Saving Time)
Zip code: 93560

Airport Operations

Airport use: Open to the public
Activation date: 03/1953
Control tower: no
ARTCC: LOS ANGELES CENTER
FSS: RIVERSIDE FLIGHT SERVICE STATION
NOTAMs facility: RAL (NOTAM-D service available)
Attendance: UNATNDD
Pattern altitude: GLIDER TFC PATTERN ALT 500'.
Wind indicator: lighted
Segmented circle: yes
Lights: AFT 11PM LCL ACTVT LIRL RWY 08/26 5 CLICKS - CTAF.
Beacon: white-green (lighted land airport)
ROTG BCN OTS INDEFLY. AFT 11PM LCL ACTVT ROTG BCN 5 CLICKS- CTAF.

Airport Communications

CTAF: 122.9
WX ASOS at WJF (8 nm S): PHONE 661-949-2840
WX AWOS-3 at MHV (12 nm N): 132.225 (661-824-5218)
WX ASOS at PMD (16 nm S): PHONE 661-272-3798
WX AWOS-1 at L71 (19 nm NE): 120.875 (760-373-7670)
WX AWOS-3P at TSP (20 nm NW): 120.025 (661-823-0473)

Nearby radio navigation aids

VOR radial/distance  VOR name  Freq  Var
PMDr319/16.0PALMDALE VORTAC114.5015E
LHSr043/21.5LAKE HUGHES VORTAC114.3515E
EDWr242/24.2EDWARDS VORTAC116.4012E
GMNr067/32.5GORMAN VORTAC116.1016E

Airport Services

Fuel available: 100LL
Parking: tiedowns
Bottled oxygen: NONE

Runway Information

Runway 8/26

Dimensions: 3600 x 50 ft. / 1097 x 15 m
Surface: asphalt, in fair condition
Runway edge lights: non-standard
RY 08/26 NSTD LIRL 25 FT FM EDGE OF RY.
RUNWAY 8  RUNWAY 26
Latitude: 34-52.230333N34-52.228167N
Longitude: 118-12.685167W118-11.965000W
Traffic pattern: rightleft
Displaced threshold: 300 ft.200 ft.
Markings: basic, in fair conditionbasic, in fair condition
Runway end identifier lights: nono
Obstructions: none
APCH RATIO 50:1 TO DSPLCD THLD.
40 ft. trees, 625 ft. from runway, 10:1 slope to clear
APCH RATIO 20:1 TO DSPLCD THLD.

Airport Ownership and Management from official FAA records

Ownership: Privately-owned
Owner: ROSAMOND SKYPARK ASSN
4000 KNOX AVENUE
ROSAMOND, CA 93560
Phone 888-397-6290
Manager: FRANCIS ZELLER
ROSAMOND SKYPARK ASSOCIATION, 4000 KNOX AVENUE
ROSAMOND, CA 93560
Phone (661) 609-3668
MGR: PRESIDENT, BOARD OF DIRECTORS DIRECTOR: JOHN WILSON, ROSAMOND SKYPARK ASSN (661) 256-4600 EMAIL: JOHN@SKYPARK.ORG

Airport Operational Statistics

Aircraft based on the field: 71
Single engine airplanes: 63
Multi engine airplanes: 3
Helicopters: 1
Gliders airplanes: 2
Ultralights: 2
    
Aircraft operations: avg 29/day *
81% local general aviation
19% transient general aviation
* for 12-month period ending 29 May 2019

Additional Remarks

MAINTAIN RY HEADING UNTIL REACHING ARPT BOUNDARY.
FOR CD CTC JOSHUA APCH AT 661-277-3843.
AUTOMATED ADZY - 4 CLICKS CTAF.
AVOID OVERFLIGHT OF SCHOOLS 1 MILE E AND 2 MILES W.
GLIDERS; ULTRALIGHTS & HELICOPTERS TFC PAT NORTH OF RY.
NO TOUCH & GO LNDGS BETWEEN 2200 & 0700 LOCAL.
POWERED ACFT ONLY MAY USE SOUTH TFC PAT.
CALM WIND USE RY 26.
TERRAIN APPROX 3,200 FEET MSL 2 MILES NORTH-EAST AND 3 MILES NORTHWEST OF ARPT.
ARPT USE RESTRICTED BY AMGR TO ACFT HAVING A MAXIMUM CERTIFICATED GROSS TKOF WGT OF 12,500 LBS OR LESS; CTC AMGR FOR ADDITIONAL INFO (888) 397-6290.

Instrument Procedures

There are no published instrument procedures at L00.

Some nearby airports with instrument procedures:

KWJF - General Wm J Fox Airfield (8 nm S)
KMHV - Mojave Air and Space Port (12 nm N)
KPMD - Palmdale USAF Plant 42 Airport (16 nm S)
KEDW - Edwards Air Force Base (16 nm E)
L71 - California City Municipal Airport (19 nm NE)
 
Loc | Ops | Rwys | IFR | FBO | Links
Com | Nav | Svcs | Stats | Notes
Area around L00 (Rosamond Skypark Airport)
 
Road maps at: MapQuest Bing Google
 
Aerial photo
WARNING: Photo may not be current or correct
Aerial photo of L00 (Rosamond Skypark Airport)
Photo by Jerry Rootlieb
Photo taken 25-Nov-2017
looking west.

Do you have a better or more recent aerial photo of Rosamond Skypark Airport that you would like to share? If so, please send us your photo.

 
Sectional chart

 
Airport distance calculator
Flying to Rosamond Skypark Airport? Find the distance to fly.

From to L00

Sunrise and sunset
Times for 25-Feb-2021
 Local
(UTC-8)
 Zulu
(UTC)
Morning civil twilight06:0314:03
Sunrise06:2814:28
Sunset17:4401:44
Evening civil twilight18:0902:09

Current date and time
Zulu (UTC)  26-Feb-2021 02:24:26
Local (UTC-8)  25-Feb-2021 18:24:26
 
METAR
KWJF 
9nm S 
260156Z 00000KT 10SM CLR 11/M24 A3014 RMK AO2 SLP212 T01111239
KMHV 
12nm N 
260140Z AUTO 00000KT 10SM CLR 12/M23 A3014 RMK A01
KPMD 
15nm SE 
260153Z 09005KT 10SM 10/M17 A3013 RMK AO2 SLP204 T01001167 $
KEDW 
17nm E 
260158Z 00000KT 60SM FEW300 12/M24 A3011 RMK AO2A SLP200 T01241243
K9L2 
18nm NE 
260158Z AUTO 00000KT 8SM CLR 12/M27 A3012 RMK AO2 SLPNO T01151270
KTSP 
20nm NW 
260155Z AUTO 30012KT 10SM CLR 07/M10 A3015 RMK AO2
TAF
KWJF 
9nm S 
252357Z 2600/2624 07010KT P6SM SKC FM260300 29008KT P6SM SCT250 FM260800 VRB03KT P6SM SCT250 FM262200 27015G25KT P6SM SKC
KPMD 
15nm SE 
252118Z 2521/2618 07019G22KT P6SM SKC FM252300 05010KT P6SM SKC FM260100 28007KT P6SM SKC
KEDW 
17nm E 
252145Z 2522/2704 05012G20KT 9999 SKC 510009 QNH3014INS BECMG 2602/2603 VRB06KT 9999 SKC QNH3012INS BECMG 2606/2607 VRB06KT 9999 BKN250 QNH3005INS BECMG 2621/2622 27015G25KT 9999 SCT250 510009 QNH2992INS TX16/2524Z TNM01/2612Z
NOTAMs
Click for the latest NOTAMs
NOTAMs are issued by the DoD/FAA and will open in a separate window not controlled by AirNav.

 

 
 

FBO, Fuel Providers, and Aircraft Ground Support

  
 Business Name 
 
 Contact 
 
 Services / Description 
 
Fuel Prices
 
Comments
  
Rosamond Skypark 661-256-4500
no information available

If you are affiliated with Rosamond Skypark and would like to show here your services, contact info, web link, logo, and more, click here
no prices available
 
   3 read write
Update Fuel Prices
 

Would you like to see your business listed on this page?

 If your business provides an interesting product or service to pilots, flight crews, aircraft, or users of the Rosamond Skypark Airport, you should consider listing it here.  To start the listing process, click on the button below
 
Add a business
 

Other Pages about Rosamond Skypark Airport

www.skypark.org
 
Update a link
 
Copyright © AirNav, LLC. All rights reserved. Privacy Policy  Contact